Fort Smith, AR

8:07 AM CDT on April 25, 2017 (GMT -0500)
Fort Smith Regional

Weather History for KFSM - November, 2012

Change the Weather History Date:

Sunday, November 25, 2012

  Actual Average Record
Temperature  
Mean Temperature 49 °F 47 °F  
Max Temperature 67 °F 58 °F 81 °F (1965)
Min Temperature 31 °F 37 °F 17 °F (1950)
Degree Days  
Heating Degree Days 16 18  
Month to date heating degree days 279 318  
Since 1 July heating degree days 439 472  
Moisture  
Dew Point 32 °F    
Average Humidity 52    
Maximum Humidity 75    
Minimum Humidity 29    
Precipitation  
Precipitation 0.00 in 0.14 in 2.22 in (1952)
Month to date precipitation 0.29 3.73  
Year to date precipitation 31.19 41.46  
Sea Level Pressure  
Sea Level Pressure 29.97 in    
Wind  
Wind Speed 5 mph (ENE)    
Max Wind Speed 14 mph    
Max Gust Speed 16 mph    
Visibility 10 miles    
Events      
T = Trace of Precipitation, MM = Missing Value Source: NWS Daily Summary

Daily Weather History Graph

Daily Weather History Graph

Search for Another Location

Airport or City:

Trip Planner

Search our weather history database for the weather conditions in past years. The results will help you decide how hot, cold, wet, or windy it might be!

Date:

Astronomy

Nov. 25, 2012 Rise Set
Actual Time 7:02 AM CST 5:06 PM CST
Civil Twilight 6:35 AM CST 5:33 PM CST
Nautical Twilight 6:04 AM CST 6:05 PM CST
Astronomical Twilight 5:33 AM CST 6:35 PM CST
Moon 3:20 PM CST 4:21 AM CST
Length of Visible Light 10h 58m
Length of Day
10h 03m
Waxing Gibbous, 93% of the Moon is Illuminated
Nov 25
Waxing Gibbous
Nov 28
Full
Dec 6
Last Quarter
Dec 13
New
Dec 19
First Quarter

Hourly Weather History & Observations

Time (CST) Temp. Windchill Dew Point Humidity Pressure Visibility Wind Dir Wind Speed Gust Speed Precip Events Conditions
12:53 AM 36.0 °F 33.3 °F 26.1 °F 67% 30.10 in 10.0 mi ENE 3.5 mph - N/A   Clear
1:53 AM 34.0 °F - 26.1 °F 73% 30.09 in 10.0 mi Calm Calm - N/A   Clear
2:53 AM 34.0 °F 31.0 °F 26.1 °F 73% 30.07 in 10.0 mi ENE 3.5 mph - N/A   Clear
3:53 AM 33.1 °F - 26.1 °F 75% 30.06 in 10.0 mi Calm Calm - N/A   Clear
4:53 AM 33.1 °F 30.0 °F 26.1 °F 75% 30.04 in 10.0 mi NE 3.5 mph - N/A   Clear
5:53 AM 33.1 °F 28.7 °F 27.0 °F 78% 30.04 in 10.0 mi ENE 4.6 mph - N/A   Clear
6:53 AM 33.1 °F 28.7 °F 27.0 °F 78% 30.04 in 10.0 mi ENE 4.6 mph - N/A   Clear
7:53 AM 35.1 °F 30.1 °F 28.0 °F 76% 30.05 in 10.0 mi ENE 5.8 mph - N/A   Clear
8:53 AM 39.9 °F 34.5 °F 28.9 °F 65% 30.05 in 10.0 mi NE 8.1 mph - N/A   Clear
9:53 AM 46.0 °F 41.4 °F 30.9 °F 56% 30.05 in 10.0 mi NE 9.2 mph - N/A   Clear
10:53 AM 53.1 °F - 30.0 °F 41% 30.01 in 10.0 mi ENE 5.8 mph - N/A   Clear
11:53 AM 59.0 °F - 30.9 °F 35% 29.97 in 10.0 mi NE 8.1 mph - N/A   Clear
12:53 PM 62.1 °F - 30.9 °F 31% 29.93 in 10.0 mi NE 12.7 mph - N/A   Clear
1:53 PM 66.0 °F - 33.1 °F 29% 29.90 in 10.0 mi ENE 9.2 mph - N/A   Clear
2:53 PM 66.9 °F - 34.0 °F 30% 29.87 in 10.0 mi East 9.2 mph - N/A   Clear
3:53 PM 66.0 °F - 34.0 °F 30% 29.87 in 10.0 mi East 9.2 mph - N/A   Clear
4:53 PM 62.1 °F - 35.1 °F 37% 29.87 in 10.0 mi NE 3.5 mph - N/A   Clear
5:53 PM 57.0 °F - 35.1 °F 44% 29.88 in 10.0 mi Calm Calm - N/A   Clear
6:53 PM 51.1 °F - 36.0 °F 56% 29.91 in 10.0 mi Calm Calm - N/A   Clear
7:53 PM 50.0 °F - 37.0 °F 61% 29.94 in 10.0 mi Calm Calm - N/A   Clear
8:53 PM 48.0 °F - 37.0 °F 66% 29.94 in 10.0 mi Calm Calm - N/A   Clear
9:53 PM 48.0 °F - 37.9 °F 68% 29.94 in 10.0 mi NE 5.8 mph - N/A   Clear
10:53 PM 48.9 °F - 37.9 °F 66% 29.94 in 10.0 mi NE 5.8 mph - N/A   Clear
11:53 PM 48.0 °F - 39.0 °F 71% 29.94 in 10.0 mi ENE 3.5 mph - N/A   Clear